{"data":{"norad_id":61787,"intl_designator":"2024-199BE","name":"2024-199BE","alt_names":[],"object_type":"PAYLOAD","status":"ACTIVE","operator":null,"country":"TBD","launch_date":"2024-11-04","launch_site_code":"VOSTO","launch_vehicle":null,"mission":null,"orbit_class":"UNKNOWN","rcs_meters":null,"size_class":null,"mass_kg":null,"dimensions":null,"purposes":[],"wikipedia_slug":null,"has_3d_model":false,"image_url":null,"decayed_at":null,"tle_current":{"epoch":"2026-09-22T21:24:49.722624Z","epoch_age_seconds":95614,"freshness":"FRESH","line1":"1 61787U 24199BE  26265.89224216  .00007011  00000+0  18949-3 0  9991","line2":"2 61787  97.2843 134.1320 0011569 321.9464  38.0963 15.37979808152104","mean_motion":15.37979808,"eccentricity":0.0011569,"inclination_deg":97.2843,"raan_deg":134.132,"arg_perigee_deg":321.9464,"mean_anomaly_deg":38.0963,"bstar":0.00018949,"rev_number":15210,"period_min":93.629317661367,"perigee_km":444.18205713722,"apogee_km":459.98582234759,"semimajor_km":6830.2209397424,"source":"CELESTRAK","updated_at":"2026-09-23T09:00:21.040731Z"}}}